Location: Brookview Estates
(36.0476°N, 86.6931°W)
Time: 11:04:31
(UTC+00:00)

Okean 3 - Pass Details

Date: 30 March 2020
Orbit: 577 x 600 km, 82.5° (Epoch: 25 May)

Event Time Altitude Azimuth Distance (km) Brightness Sun altitude
Exits shadow 10:16:42 - 185° (S) 2,565 6.5 -16.4°
Reaches altitude 10° 10:18:21 10° 185° (S) 1,890 5.8 -16.0°
Maximum altitude 10:22:31 90° 109° (ESE) 584 3.4 -15.2°
Drops below altitude 10° 10:26:43 10° 7° (N) 1,896 6.4 -14.4°
Sets 10:28:54 0° 7° (N) 2,798 7.2 -14.0°
